Location: Evansville
(37.9747°N, 87.5558°W)
Time: 19:54:15
(UTC-06:00)

ARIANE 6 FM1 Upper Stage - Pass Details

Date: 14 December 2025
Orbit: 522 x 610 km, 62.0° (Epoch: 13 January)

Event Time Altitude Azimuth Distance (km) Brightness Sun altitude
Rises 05:16:52 0° 189° (S) 2,708 6.2 -19.4°
Reaches altitude 10° 05:19:17 10° 178° (S) 1,804 5.4 -18.9°
Maximum altitude 05:22:48 29° 118° (ESE) 1,005 4.7 -18.2°
Drops below altitude 10° 05:26:16 10° 57° (ENE) 1,779 5.8 -17.6°
Sets 05:28:38 0° 46° (NE) 2,664 6.5 -17.1°
